TFL1236 EHAM-LGZA

Flight info

Callsign TFL1236
Flight time 2h 34m
Altitude 37000
Route EDUPO Z739 MISGO DCT DIXAT DCT DOJOH DCT DODEN DCT NEGIX DCT DINKU M867 XERUM DCT BAVAX DCT RADIZ DCT AIOSA DCT LUPAL DCT LATAN UM872 ASTUS
Aircraft B38M/M-SDE1FGHILORVWXY/HB1

Departure

Time 2026-05-07 18:16
Airport Amsterdam Airport Schiphol (EHAM)

Arrival

Time 2026-05-07 20:51
Airport Zakynthos International Airport Dionysios Solomos (LGZA)
Time Latitude Longitude Altitude Speed Heading
2026-05-07 17:49 52.30745 4.76896 1 ft 0 kts 51°
2026-05-07 17:49 52.30744 4.76895 1 ft 0 kts 50°
2026-05-07 18:05 52.30744 4.76894 1 ft 1 kts 50°
2026-05-07 18:05 52.30728 4.76865 1 ft 4 kts 52°
2026-05-07 18:05 52.30716 4.76832 1 ft 4 kts 77°
2026-05-07 18:06 52.30724 4.76809 1 ft 4 kts 146°
2026-05-07 18:06 52.30734 4.76798 1 ft 2 kts 147°
2026-05-07 18:06 52.30713 4.76816 1 ft 4 kts 154°
2026-05-07 18:06 52.30699 4.76830 1 ft 1 kts 148°
2026-05-07 18:09 52.30698 4.76831 1 ft 1 kts 148°
2026-05-07 18:09 52.30688 4.76841 1 ft 3 kts 148°
2026-05-07 18:09 52.30666 4.76852 1 ft 4 kts 172°
2026-05-07 18:09 52.30658 4.76855 1 ft 0 kts 167°
2026-05-07 18:10 52.30630 4.76853 1 ft 5 kts 177°
2026-05-07 18:10 52.30577 4.76898 1 ft 14 kts 145°
2026-05-07 18:10 52.30480 4.76962 1 ft 16 kts 197°
2026-05-07 18:10 52.30415 4.76836 1 ft 15 kts 238°
2026-05-07 18:11 52.30354 4.76675 1 ft 19 kts 238°
2026-05-07 18:11 52.30306 4.76551 1 ft 20 kts 237°
2026-05-07 18:11 52.30202 4.76278 1 ft 22 kts 238°
2026-05-07 18:11 52.30116 4.76057 1 ft 24 kts 238°
2026-05-07 18:12 52.30026 4.75820 1 ft 25 kts 241°
2026-05-07 18:12 52.29931 4.75573 1 ft 26 kts 237°
2026-05-07 18:12 52.29843 4.75325 1 ft 22 kts 259°
2026-05-07 18:12 52.29894 4.75099 2 ft 23 kts 309°
2026-05-07 18:13 52.30001 4.74902 2 ft 24 kts 311°
2026-05-07 18:13 52.30109 4.74701 8 ft 22 kts 311°
2026-05-07 18:13 52.30203 4.74527 12 ft 21 kts 311°
2026-05-07 18:13 52.30304 4.74338 8 ft 25 kts 308°
2026-05-07 18:14 52.30302 4.74134 2 ft 6 kts 271°
2026-05-07 18:14 52.30326 4.74075 1 ft 7 kts 311°
2026-05-07 18:14 52.30303 4.74007 1 ft 11 kts 206°
2026-05-07 18:14 52.30263 4.73943 1 ft 0 kts 271°
2026-05-07 18:15 52.30245 4.73920 1 ft 15 kts 206°
2026-05-07 18:15 52.30201 4.73765 0 ft 18 kts 298°
2026-05-07 18:15 52.30262 4.73744 -1 ft 0 kts
2026-05-07 18:16 52.30270 4.73745 -2 ft 6 kts
2026-05-07 18:16 52.30613 4.73776 -1 ft 93 kts
2026-05-07 18:16 52.31522 4.73862 13 ft 164 kts
2026-05-07 18:16 52.32738 4.73943 700 ft 180 kts
2026-05-07 18:17 52.33981 4.74068 1662 ft 181 kts
2026-05-07 18:17 52.35247 4.74637 2251 ft 199 kts 30°
2026-05-07 18:17 52.36537 4.75757 2854 ft 221 kts 28°
2026-05-07 18:17 52.37929 4.77039 3494 ft 235 kts 42°
2026-05-07 18:18 52.39081 4.78969 4436 ft 241 kts 47°
2026-05-07 18:18 52.40261 4.80995 5366 ft 252 kts 47°
2026-05-07 18:18 52.41504 4.83121 6060 ft 271 kts 49°
2026-05-07 18:18 52.42477 4.85803 6879 ft 276 kts 77°
2026-05-07 18:19 52.42594 4.88898 7916 ft 275 kts 97°
2026-05-07 18:19 52.42496 4.92092 8778 ft 285 kts 93°
2026-05-07 18:19 52.42461 4.95359 9782 ft 288 kts 91°
2026-05-07 18:19 52.42174 4.98627 10528 ft 298 kts 111°
2026-05-07 18:20 52.41067 5.01571 10985 ft 314 kts 136°
2026-05-07 18:20 52.39249 5.03663 11462 ft 328 kts 155°
2026-05-07 18:20 52.37203 5.05510 12040 ft 341 kts 150°
2026-05-07 18:20 52.35174 5.07576 12871 ft 345 kts 148°
2026-05-07 18:21 52.33204 5.09864 13669 ft 352 kts 137°
2026-05-07 18:21 52.31534 5.12817 14426 ft 356 kts 134°
2026-05-07 18:21 52.29855 5.15837 15106 ft 360 kts 133°
2026-05-07 18:21 52.28168 5.18888 15835 ft 364 kts 133°
2026-05-07 18:22 52.26468 5.21971 16542 ft 367 kts 133°
2026-05-07 18:22 52.25333 5.24026 16991 ft 370 kts 133°
2026-05-07 18:22 52.23197 5.28493 17908 ft 375 kts 126°
2026-05-07 18:22 52.21689 5.31989 18544 ft 378 kts 126°
2026-05-07 18:23 52.20158 5.35521 19096 ft 382 kts 126°
2026-05-07 18:23 52.18636 5.39021 19669 ft 385 kts 127°
2026-05-07 18:23 52.17082 5.42593 20214 ft 389 kts 126°
2026-05-07 18:23 52.15508 5.46199 20779 ft 391 kts 127°
2026-05-07 18:24 52.13921 5.49832 21257 ft 397 kts 127°
2026-05-07 18:24 52.12313 5.53510 21828 ft 399 kts 127°
2026-05-07 18:24 52.10693 5.57209 22346 ft 403 kts 127°
2026-05-07 18:24 52.09059 5.60932 22876 ft 406 kts 127°
2026-05-07 18:25 52.07411 5.64684 23394 ft 409 kts 127°
2026-05-07 18:25 52.05695 5.68400 23850 ft 411 kts 132°
2026-05-07 18:25 52.03811 5.71917 24281 ft 414 kts 133°
2026-05-07 18:25 52.01917 5.75455 24715 ft 416 kts 133°
2026-05-07 18:26 52.00005 5.79023 25012 ft 421 kts 133°
2026-05-07 18:26 51.98084 5.82604 25073 ft 420 kts 133°
2026-05-07 18:26 51.96165 5.86189 25407 ft 420 kts 133°
2026-05-07 18:26 51.94246 5.89774 25842 ft 423 kts 133°
2026-05-07 18:27 51.92311 5.93382 26222 ft 426 kts 133°
2026-05-07 18:27 51.90360 5.97016 26639 ft 428 kts 133°
2026-05-07 18:27 51.88424 6.00616 27015 ft 430 kts 133°
2026-05-07 18:27 51.87090 6.03093 27257 ft 432 kts 133°
2026-05-07 18:28 51.84460 6.07954 27776 ft 435 kts 133°
2026-05-07 18:28 51.82455 6.11641 28152 ft 437 kts 133°
2026-05-07 18:28 51.80444 6.15334 28520 ft 440 kts 133°
2026-05-07 18:28 51.78412 6.19058 28884 ft 442 kts 133°
2026-05-07 18:29 51.76375 6.22786 29235 ft 444 kts 133°
2026-05-07 18:29 51.74321 6.26538 29576 ft 446 kts 133°
2026-05-07 18:29 51.72252 6.30310 29925 ft 449 kts 133°
2026-05-07 18:29 51.70177 6.34087 30223 ft 451 kts 133°
2026-05-07 18:30 51.68085 6.37890 30501 ft 453 kts 133°
2026-05-07 18:30 51.65991 6.41691 30788 ft 455 kts 133°
2026-05-07 18:30 51.63909 6.45464 31063 ft 457 kts 133°
2026-05-07 18:30 51.61796 6.49291 31320 ft 459 kts 133°
2026-05-07 18:31 51.59667 6.53141 31571 ft 461 kts 133°
2026-05-07 18:31 51.57529 6.56999 31848 ft 462 kts 133°
2026-05-07 18:31 51.55389 6.60858 32196 ft 462 kts 133°
2026-05-07 18:31 51.53248 6.64711 32572 ft 461 kts 133°
2026-05-07 18:32 51.51111 6.68553 32948 ft 460 kts 133°
2026-05-07 18:32 51.48976 6.72382 33305 ft 459 kts 133°
2026-05-07 18:32 51.46844 6.76203 33684 ft 458 kts 133°
2026-05-07 18:32 51.44718 6.80006 34046 ft 457 kts 133°
2026-05-07 18:33 51.42595 6.83797 34325 ft 457 kts 133°
2026-05-07 18:33 51.40489 6.87613 34563 ft 457 kts 130°
2026-05-07 18:33 51.38520 6.91541 34813 ft 458 kts 130°
2026-05-07 18:33 51.36528 6.95536 35038 ft 458 kts 130°
2026-05-07 18:34 51.34535 6.99535 35235 ft 460 kts 130°
2026-05-07 18:34 51.32538 7.03540 35470 ft 460 kts 130°
2026-05-07 18:34 51.30539 7.07542 35711 ft 460 kts 130°
2026-05-07 18:34 51.28532 7.11554 35938 ft 461 kts 130°
2026-05-07 18:35 51.26491 7.15484 36144 ft 460 kts 137°
2026-05-07 18:35 51.24092 7.18817 36368 ft 457 kts 141°
2026-05-07 18:35 51.21685 7.22155 36491 ft 460 kts 141°
2026-05-07 18:35 51.19276 7.25515 36699 ft 460 kts 141°
2026-05-07 18:36 51.16866 7.28866 36887 ft 460 kts 141°
2026-05-07 18:36 51.14457 7.32212 37056 ft 461 kts 141°
2026-05-07 18:36 51.12064 7.35529 37084 ft 461 kts 141°
2026-05-07 18:37 51.07232 7.42213 37075 ft 460 kts 141°
2026-05-07 18:37 51.02396 7.48883 37063 ft 460 kts 141°
2026-05-07 18:38 50.97559 7.55536 37065 ft 460 kts 141°
2026-05-07 18:38 50.92702 7.62197 37070 ft 461 kts 141°
2026-05-07 18:39 50.87844 7.68841 37062 ft 461 kts 141°
2026-05-07 18:39 50.83014 7.75551 37060 ft 462 kts 139°
2026-05-07 18:40 50.78641 7.82990 37078 ft 463 kts 133°
2026-05-07 18:40 50.74316 7.90545 37048 ft 463 kts 134°
2026-05-07 18:41 50.70704 7.96780 37043 ft 463 kts 134°
2026-05-07 18:41 50.65631 8.05505 37051 ft 464 kts 134°
2026-05-07 18:42 50.61264 8.12991 37065 ft 464 kts 134°
2026-05-07 18:42 50.57625 8.19212 37056 ft 464 kts 134°
2026-05-07 18:43 50.53239 8.26691 37071 ft 465 kts 134°
2026-05-07 18:43 50.48847 8.34158 37072 ft 465 kts 134°
2026-05-07 18:44 50.44453 8.41606 37071 ft 465 kts 134°
2026-05-07 18:44 50.40046 8.49055 37070 ft 465 kts 134°
2026-05-07 18:45 50.35635 8.56488 37063 ft 465 kts 134°
2026-05-07 18:45 50.31216 8.63912 37058 ft 466 kts 135°
2026-05-07 18:46 50.26796 8.71317 37058 ft 466 kts 135°
2026-05-07 18:46 50.22364 8.78720 37060 ft 466 kts 135°
2026-05-07 18:47 50.17927 8.86110 37062 ft 466 kts 135°
2026-05-07 18:47 50.13486 8.93484 37056 ft 466 kts 135°
2026-05-07 18:48 50.09044 9.00841 37057 ft 466 kts 135°
2026-05-07 18:48 50.04592 9.08191 37062 ft 466 kts 135°
2026-05-07 18:49 50.00155 9.15496 37060 ft 467 kts 135°
2026-05-07 18:49 49.95694 9.22818 37069 ft 467 kts 135°
2026-05-07 18:50 49.91225 9.30133 37058 ft 467 kts 135°
2026-05-07 18:50 49.86746 9.37443 37060 ft 467 kts 135°
2026-05-07 18:51 49.82272 9.44724 37061 ft 467 kts 135°
2026-05-07 18:51 49.77660 9.51806 37060 ft 464 kts 144°
2026-05-07 18:52 49.72703 9.58167 37047 ft 465 kts 142°
2026-05-07 18:52 49.67766 9.64687 37061 ft 467 kts 141°
2026-05-07 18:53 49.62837 9.71206 37067 ft 466 kts 141°
2026-05-07 18:53 49.57908 9.77710 37058 ft 466 kts 141°
2026-05-07 18:54 49.52975 9.84199 37047 ft 467 kts 142°
2026-05-07 18:54 49.48028 9.90690 37038 ft 467 kts 142°
2026-05-07 18:55 49.43069 9.97179 37054 ft 468 kts 142°
2026-05-07 18:55 49.38108 10.03652 37048 ft 468 kts 142°
2026-05-07 18:56 49.33177 10.10070 37046 ft 468 kts 142°
2026-05-07 18:56 49.28209 10.16517 37048 ft 468 kts 142°
2026-05-07 18:57 49.23233 10.22957 37064 ft 468 kts 142°
2026-05-07 18:57 49.18249 10.29391 37081 ft 469 kts 142°
2026-05-07 18:58 49.13255 10.35819 37096 ft 469 kts 142°
2026-05-07 18:58 49.08263 10.42227 37094 ft 469 kts 142°
2026-05-07 18:59 49.03262 10.48629 37093 ft 469 kts 142°
2026-05-07 18:59 48.98255 10.55022 37104 ft 470 kts 142°
2026-05-07 19:00 48.93241 10.61405 37101 ft 470 kts 143°
2026-05-07 19:00 48.88257 10.67733 37104 ft 470 kts 143°
2026-05-07 19:01 48.83235 10.74094 37102 ft 470 kts 143°
2026-05-07 19:01 48.78573 10.81061 37098 ft 472 kts 134°
2026-05-07 19:02 48.74155 10.88489 37060 ft 474 kts 135°
2026-05-07 19:02 48.69730 10.95897 37055 ft 474 kts 135°
2026-05-07 19:03 48.65302 11.03290 37052 ft 474 kts 135°
2026-05-07 19:03 48.60868 11.10671 37050 ft 474 kts 135°
2026-05-07 19:04 48.56437 11.18028 37051 ft 474 kts 135°
2026-05-07 19:04 48.52016 11.25346 37055 ft 474 kts 135°
2026-05-07 19:05 48.47568 11.32695 37067 ft 475 kts 135°
2026-05-07 19:05 48.43106 11.40039 37075 ft 475 kts 135°
2026-05-07 19:06 48.38645 11.47361 37071 ft 474 kts 135°
2026-05-07 19:06 48.31941 11.58328 37075 ft 475 kts 135°
2026-05-07 19:07 48.27469 11.65621 37070 ft 474 kts 135°
2026-05-07 19:07 48.22727 11.72437 37094 ft 472 kts 140°
2026-05-07 19:08 48.17917 11.79057 37069 ft 472 kts 140°
2026-05-07 19:08 48.13075 11.85699 37069 ft 472 kts 140°
2026-05-07 19:09 48.08227 11.92332 37068 ft 472 kts 140°
2026-05-07 19:09 48.03378 11.98948 37061 ft 472 kts 141°
2026-05-07 19:10 47.98527 12.05551 37060 ft 472 kts 141°
2026-05-07 19:10 47.93665 12.12148 37064 ft 472 kts 141°
2026-05-07 19:11 47.88801 12.18733 37063 ft 472 kts 141°
2026-05-07 19:11 47.83932 12.25306 37068 ft 472 kts 141°
2026-05-07 19:12 47.79056 12.31871 37066 ft 472 kts 141°
2026-05-07 19:12 47.74180 12.38420 37064 ft 473 kts 141°
2026-05-07 19:13 47.69291 12.44969 37061 ft 473 kts 141°
2026-05-07 19:13 47.64423 12.51473 37074 ft 474 kts 141°
2026-05-07 19:14 47.59135 12.57123 37096 ft 466 kts 152°
2026-05-07 19:14 47.53620 12.62209 37060 ft 467 kts 152°
2026-05-07 19:15 47.48105 12.67310 37072 ft 469 kts 152°
2026-05-07 19:15 47.42559 12.72430 37059 ft 468 kts 152°
2026-05-07 19:16 47.37055 12.77498 37069 ft 468 kts 152°
2026-05-07 19:16 47.31499 12.82600 37097 ft 469 kts 152°
2026-05-07 19:17 47.25984 12.87653 37056 ft 468 kts 152°
2026-05-07 19:17 47.20431 12.92728 37065 ft 468 kts 152°
2026-05-07 19:18 47.14917 12.97754 37067 ft 467 kts 153°
2026-05-07 19:18 47.09388 13.02781 37055 ft 468 kts 153°
2026-05-07 19:19 47.03856 13.07799 37050 ft 467 kts 153°
2026-05-07 19:19 46.98331 13.12799 37060 ft 469 kts 153°
2026-05-07 19:20 46.92760 13.17826 37043 ft 468 kts 153°
2026-05-07 19:20 46.87204 13.22830 37043 ft 467 kts 153°
2026-05-07 19:21 46.81707 13.27766 37032 ft 468 kts 153°
2026-05-07 19:21 46.76152 13.32743 37061 ft 468 kts 154°
2026-05-07 19:22 46.70592 13.37713 37039 ft 468 kts 154°
2026-05-07 19:22 46.65028 13.42674 37051 ft 468 kts 154°
2026-05-07 19:23 46.59462 13.47625 37030 ft 468 kts 154°
2026-05-07 19:23 46.53902 13.52558 37057 ft 469 kts 154°
2026-05-07 19:24 46.48338 13.57482 37052 ft 468 kts 154°
2026-05-07 19:24 46.42810 13.62367 37041 ft 468 kts 154°
2026-05-07 19:25 46.37239 13.67272 37033 ft 468 kts 155°
2026-05-07 19:25 46.31673 13.72161 37099 ft 468 kts 154°
2026-05-07 19:26 46.26105 13.77043 37029 ft 466 kts 155°
2026-05-07 19:26 46.21485 13.81084 37048 ft 468 kts 155°
2026-05-07 19:27 46.15919 13.85940 37044 ft 467 kts 155°
2026-05-07 19:27 46.10354 13.90787 37015 ft 467 kts 155°
2026-05-07 19:28 46.04788 13.95622 37048 ft 467 kts 155°
2026-05-07 19:28 45.99214 14.00451 36996 ft 467 kts 155°
2026-05-07 19:29 45.93650 14.05262 37040 ft 467 kts 155°
2026-05-07 19:29 45.88111 14.10038 37043 ft 466 kts 155°
2026-05-07 19:30 45.82550 14.14824 37111 ft 468 kts 155°
2026-05-07 19:30 45.79751 14.17228 36983 ft 466 kts 155°
2026-05-07 19:30 45.76974 14.19610 37024 ft 465 kts 155°
2026-05-07 19:31 45.71394 14.24388 37042 ft 467 kts 155°
2026-05-07 19:31 45.65823 14.29148 37034 ft 465 kts 155°
2026-05-07 19:32 45.60252 14.33896 37055 ft 466 kts 155°
2026-05-07 19:32 45.54677 14.38637 37048 ft 466 kts 155°
2026-05-07 19:33 45.49141 14.43334 37046 ft 466 kts 155°
2026-05-07 19:33 45.43564 14.48054 37032 ft 466 kts 156°
2026-05-07 19:34 45.37987 14.52763 37050 ft 467 kts 156°
2026-05-07 19:34 45.32389 14.57480 37059 ft 467 kts 156°
2026-05-07 19:35 45.26824 14.62158 37042 ft 467 kts 156°
2026-05-07 19:35 45.21219 14.66858 37021 ft 467 kts 156°
2026-05-07 19:36 45.15637 14.71528 37055 ft 467 kts 156°
2026-05-07 19:36 45.10035 14.76204 37040 ft 467 kts 156°
2026-05-07 19:37 45.04410 14.80889 37045 ft 467 kts 156°
2026-05-07 19:37 44.98833 14.85524 37036 ft 467 kts 156°
2026-05-07 19:38 44.93239 14.90161 37045 ft 467 kts 156°
2026-05-07 19:38 44.87602 14.94823 37047 ft 467 kts 156°
2026-05-07 19:39 44.82008 14.99439 37064 ft 467 kts 156°
2026-05-07 19:39 44.76387 15.04069 37032 ft 467 kts 156°
2026-05-07 19:40 44.70770 15.08682 37043 ft 469 kts 156°
2026-05-07 19:40 44.65130 15.13305 37096 ft 470 kts 156°
2026-05-07 19:41 44.59492 15.17916 37043 ft 467 kts 156°
2026-05-07 19:41 44.53868 15.22503 37028 ft 467 kts 156°
2026-05-07 19:42 44.48260 15.27070 37054 ft 469 kts 157°
2026-05-07 19:42 44.42627 15.31645 37057 ft 468 kts 157°
2026-05-07 19:43 44.36968 15.36231 37058 ft 468 kts 157°
2026-05-07 19:43 44.31356 15.40768 37048 ft 469 kts 157°
2026-05-07 19:44 44.25711 15.45322 37041 ft 469 kts 157°
2026-05-07 19:44 44.20081 15.49853 37071 ft 469 kts 157°
2026-05-07 19:45 44.14427 15.54396 37066 ft 468 kts 157°
2026-05-07 19:45 44.08765 15.58933 37061 ft 468 kts 158°
2026-05-07 19:46 44.03118 15.63448 37063 ft 469 kts 158°
2026-05-07 19:46 43.97477 15.67948 37033 ft 468 kts 158°
2026-05-07 19:47 43.91827 15.72446 37061 ft 469 kts 158°
2026-05-07 19:47 43.86158 15.76949 37046 ft 469 kts 158°
2026-05-07 19:48 43.80469 15.81458 37048 ft 469 kts 158°
2026-05-07 19:48 43.74813 15.85931 37043 ft 469 kts 158°
2026-05-07 19:49 43.69144 15.90404 37052 ft 469 kts 158°
2026-05-07 19:49 43.63474 15.94868 37046 ft 469 kts 158°
2026-05-07 19:50 43.57840 15.99294 37063 ft 469 kts 158°
2026-05-07 19:50 43.52155 16.03750 37070 ft 470 kts 158°
2026-05-07 19:51 43.46451 16.08212 37040 ft 470 kts 158°
2026-05-07 19:51 43.40757 16.12656 37064 ft 470 kts 158°
2026-05-07 19:52 43.35069 16.17085 37061 ft 470 kts 158°
2026-05-07 19:52 43.29410 16.21483 37057 ft 470 kts 158°
2026-05-07 19:53 43.23713 16.25900 37032 ft 470 kts 158°
2026-05-07 19:53 43.18062 16.30273 37048 ft 470 kts 158°
2026-05-07 19:54 43.12357 16.34677 37044 ft 470 kts 158°
2026-05-07 19:54 43.06642 16.39080 37054 ft 472 kts 158°
2026-05-07 19:55 43.00933 16.43469 37034 ft 473 kts 158°
2026-05-07 19:55 42.95172 16.47888 37049 ft 474 kts 158°
2026-05-07 19:56 42.89418 16.52292 37048 ft 474 kts 158°
2026-05-07 19:56 42.83665 16.56686 37045 ft 474 kts 158°
2026-05-07 19:57 42.77944 16.61047 37038 ft 475 kts 158°
2026-05-07 19:57 42.72172 16.65435 37043 ft 475 kts 158°
2026-05-07 19:58 42.66392 16.69822 37041 ft 475 kts 158°
2026-05-07 19:58 42.60608 16.74201 37039 ft 476 kts 158°
2026-05-07 19:59 42.54829 16.78568 37042 ft 475 kts 159°
2026-05-07 19:59 42.49050 16.82926 37040 ft 475 kts 159°
2026-05-07 20:00 42.43305 16.87250 37035 ft 474 kts 159°
2026-05-07 20:00 42.37532 16.91586 37036 ft 475 kts 159°
2026-05-07 20:01 42.31752 16.95918 37035 ft 475 kts 160°
2026-05-07 20:01 42.25978 17.00237 37030 ft 474 kts 160°
2026-05-07 20:02 42.20200 17.04551 37029 ft 474 kts 160°
2026-05-07 20:02 42.14419 17.08856 37039 ft 476 kts 160°
2026-05-07 20:03 42.08635 17.13156 37031 ft 474 kts 162°
2026-05-07 20:03 42.02864 17.17437 37028 ft 473 kts 162°
2026-05-07 20:04 41.97131 17.21681 37034 ft 473 kts 162°
2026-05-07 20:04 41.91333 17.25795 37007 ft 468 kts 165°
2026-05-07 20:05 41.85481 17.29564 37027 ft 465 kts 167°
2026-05-07 20:05 41.79640 17.33316 37035 ft 465 kts 167°
2026-05-07 20:06 41.73806 17.37057 37031 ft 465 kts 167°
2026-05-07 20:06 41.67967 17.40793 36981 ft 465 kts 167°
2026-05-07 20:07 41.62100 17.44544 37037 ft 468 kts 167°
2026-05-07 20:07 41.56231 17.48282 37031 ft 467 kts 167°
2026-05-07 20:08 41.50399 17.51991 37030 ft 467 kts 167°
2026-05-07 20:08 41.44527 17.55718 37030 ft 467 kts 167°
2026-05-07 20:09 41.38657 17.59437 37031 ft 467 kts 167°
2026-05-07 20:10 41.29851 17.65001 37034 ft 467 kts 167°
2026-05-07 20:10 41.23984 17.68699 37034 ft 467 kts 167°
2026-05-07 20:11 41.18098 17.72402 37048 ft 469 kts 167°
2026-05-07 20:11 41.12197 17.76106 37007 ft 470 kts 167°
2026-05-07 20:12 41.06250 17.79833 37033 ft 474 kts 167°
2026-05-07 20:12 41.00333 17.83533 37014 ft 473 kts 167°
2026-05-07 20:13 40.94369 17.87254 37027 ft 474 kts 167°
2026-05-07 20:13 40.88402 17.90971 37030 ft 474 kts 167°
2026-05-07 20:14 40.82461 17.94663 37031 ft 474 kts 167°
2026-05-07 20:14 40.76495 17.98364 37017 ft 473 kts 167°
2026-05-07 20:15 40.70583 18.02025 37045 ft 472 kts 167°
2026-05-07 20:15 40.64634 18.05700 37048 ft 472 kts 167°
2026-05-07 20:16 40.58687 18.09368 37044 ft 472 kts 167°
2026-05-07 20:16 40.52743 18.13025 37005 ft 472 kts 167°
2026-05-07 20:17 40.47799 18.16062 37042 ft 472 kts 167°
2026-05-07 20:17 40.41849 18.19710 37042 ft 471 kts 167°
2026-05-07 20:18 40.35909 18.23347 37041 ft 471 kts 167°
2026-05-07 20:18 40.29972 18.26973 37017 ft 471 kts 167°
2026-05-07 20:19 40.24019 18.30601 37049 ft 472 kts 167°
2026-05-07 20:19 40.18062 18.34226 37039 ft 472 kts 167°
2026-05-07 20:20 40.12111 18.37840 37035 ft 472 kts 167°
2026-05-07 20:20 40.06157 18.41448 36983 ft 472 kts 167°
2026-05-07 20:21 40.00183 18.45061 37012 ft 476 kts 166°
2026-05-07 20:21 39.94161 18.48698 37023 ft 477 kts 166°
2026-05-07 20:22 39.88133 18.52330 37019 ft 477 kts 166°
2026-05-07 20:22 39.82105 18.55955 36814 ft 479 kts 166°
2026-05-07 20:22 39.79092 18.57767 36224 ft 475 kts 166°
2026-05-07 20:23 39.76135 18.59541 35573 ft 473 kts 165°
2026-05-07 20:23 39.73151 18.61329 34940 ft 472 kts 165°
2026-05-07 20:23 39.70172 18.63113 34323 ft 471 kts 165°
2026-05-07 20:23 39.67191 18.64896 33677 ft 471 kts 164°
2026-05-07 20:24 39.64212 18.66677 32996 ft 472 kts 164°
2026-05-07 20:24 39.61224 18.68461 32340 ft 474 kts 164°
2026-05-07 20:24 39.58226 18.70250 31668 ft 475 kts 163°
2026-05-07 20:24 39.55206 18.72051 31025 ft 477 kts 163°
2026-05-07 20:25 39.52186 18.73850 30399 ft 478 kts 163°
2026-05-07 20:25 39.49159 18.75652 29743 ft 480 kts 162°
2026-05-07 20:25 39.46253 18.77873 28986 ft 494 kts 148°
2026-05-07 20:25 39.43766 18.81020 28276 ft 506 kts 138°
2026-05-07 20:26 39.41333 18.84311 27571 ft 506 kts 140°
2026-05-07 20:26 39.38868 18.87554 26903 ft 506 kts 140°
2026-05-07 20:26 39.36393 18.90795 26237 ft 506 kts 140°
2026-05-07 20:26 39.33913 18.94033 25591 ft 506 kts 139°
2026-05-07 20:27 39.31470 18.97218 24974 ft 504 kts 139°
2026-05-07 20:27 39.29008 19.00428 24611 ft 502 kts 139°
2026-05-07 20:27 39.26560 19.03625 24252 ft 499 kts 139°
2026-05-07 20:27 39.24125 19.06801 23921 ft 496 kts 139°
2026-05-07 20:28 39.21705 19.09955 23593 ft 493 kts 139°
2026-05-07 20:28 39.19292 19.13097 23173 ft 490 kts 139°
2026-05-07 20:28 39.16897 19.16209 22787 ft 488 kts 139°
2026-05-07 20:28 39.14515 19.19303 22404 ft 484 kts 139°
2026-05-07 20:29 39.12155 19.22366 22022 ft 480 kts 139°
2026-05-07 20:29 39.09812 19.25404 21655 ft 476 kts 139°
2026-05-07 20:29 39.07493 19.28408 21287 ft 472 kts 139°
2026-05-07 20:29 39.05186 19.31393 20926 ft 468 kts 139°
2026-05-07 20:30 39.02898 19.34350 20568 ft 464 kts 139°
2026-05-07 20:30 39.00631 19.37279 20220 ft 460 kts 139°
2026-05-07 20:30 38.98381 19.40181 19880 ft 457 kts 139°
2026-05-07 20:30 38.96144 19.43065 19538 ft 453 kts 139°
2026-05-07 20:31 38.93952 19.45887 19206 ft 450 kts 139°
2026-05-07 20:31 38.91749 19.48721 18895 ft 447 kts 139°
2026-05-07 20:31 38.89557 19.51539 18598 ft 444 kts 139°
2026-05-07 20:31 38.87380 19.54334 18321 ft 441 kts 139°
2026-05-07 20:32 38.85217 19.57108 17993 ft 438 kts 139°
2026-05-07 20:32 38.83066 19.59866 17679 ft 436 kts 139°
2026-05-07 20:32 38.80923 19.62611 17357 ft 434 kts 139°
2026-05-07 20:32 38.78792 19.65338 17050 ft 432 kts 139°
2026-05-07 20:33 38.76667 19.68054 16735 ft 430 kts 139°
2026-05-07 20:33 38.74551 19.70757 16431 ft 429 kts 139°
2026-05-07 20:33 38.72442 19.73447 16135 ft 427 kts 139°
2026-05-07 20:33 38.70341 19.76126 15831 ft 425 kts 139°
2026-05-07 20:34 38.68251 19.78789 15533 ft 422 kts 139°
2026-05-07 20:34 38.66172 19.81435 15234 ft 421 kts 139°
2026-05-07 20:34 38.64128 19.84034 14934 ft 419 kts 139°
2026-05-07 20:34 38.62062 19.86658 14836 ft 418 kts 137°
2026-05-07 20:35 38.60564 19.88548 14799 ft 299 kts 139°
2026-05-07 20:35 38.59097 19.90424 14528 ft 297 kts 141°
2026-05-07 20:35 38.57631 19.92282 14259 ft 297 kts 141°
2026-05-07 20:35 38.56184 19.94174 13981 ft 297 kts 139°
2026-05-07 20:36 38.54760 19.96068 13771 ft 293 kts 140°
2026-05-07 20:36 38.53354 19.97931 13622 ft 290 kts 140°
2026-05-07 20:36 38.51957 19.99779 13476 ft 289 kts 140°
2026-05-07 20:36 38.50561 20.01623 13331 ft 288 kts 140°
2026-05-07 20:37 38.49188 20.03434 13177 ft 288 kts 140°
2026-05-07 20:37 38.47797 20.05270 13035 ft 287 kts 140°
2026-05-07 20:37 38.46411 20.07096 12900 ft 286 kts 140°
2026-05-07 20:37 38.45028 20.08917 12758 ft 285 kts 140°
2026-05-07 20:38 38.43624 20.10763 12613 ft 298 kts 140°
2026-05-07 20:38 38.42140 20.12715 12467 ft 314 kts 140°
2026-05-07 20:38 38.40576 20.14771 12302 ft 331 kts 139°
2026-05-07 20:38 38.38932 20.16932 12139 ft 348 kts 139°
2026-05-07 20:39 38.37685 20.18570 12019 ft 360 kts 139°
2026-05-07 20:40 38.35963 20.20829 11860 ft 375 kts 138°
2026-05-07 20:40 38.34105 20.23265 11665 ft 388 kts 138°
2026-05-07 20:40 38.32216 20.25741 11304 ft 391 kts 138°
2026-05-07 20:41 38.30323 20.28219 10971 ft 390 kts 138°
2026-05-07 20:41 38.28459 20.30657 10643 ft 388 kts 138°
2026-05-07 20:41 38.26580 20.33113 10312 ft 385 kts 138°
2026-05-07 20:41 38.24717 20.35547 10004 ft 383 kts 138°
2026-05-07 20:42 38.22867 20.37961 9641 ft 380 kts 139°
2026-05-07 20:42 38.21027 20.40361 9273 ft 377 kts 139°
2026-05-07 20:42 38.19202 20.42739 8926 ft 375 kts 138°
2026-05-07 20:42 38.17383 20.45107 8577 ft 372 kts 138°
2026-05-07 20:43 38.15580 20.47452 8227 ft 370 kts 138°
2026-05-07 20:43 38.13785 20.49787 7899 ft 367 kts 138°
2026-05-07 20:43 38.12001 20.52103 7559 ft 364 kts 138°
2026-05-07 20:43 38.10233 20.54398 7220 ft 362 kts 138°
2026-05-07 20:44 38.08482 20.56670 6893 ft 359 kts 138°
2026-05-07 20:44 38.06763 20.58898 6567 ft 356 kts 138°
2026-05-07 20:44 38.05080 20.61195 6237 ft 354 kts 135°
2026-05-07 20:44 38.03453 20.63527 5902 ft 352 kts 134°
2026-05-07 20:45 38.01833 20.65839 5567 ft 349 kts 135°
2026-05-07 20:45 38.00219 20.68126 5230 ft 346 kts 135°
2026-05-07 20:45 37.98617 20.70379 4893 ft 335 kts 134°
2026-05-07 20:45 37.97096 20.72499 4564 ft 315 kts 135°
2026-05-07 20:46 37.95666 20.74500 4241 ft 298 kts 135°
2026-05-07 20:46 37.94310 20.76395 3919 ft 283 kts 135°
2026-05-07 20:46 37.93021 20.78190 3658 ft 268 kts 135°
2026-05-07 20:46 37.91799 20.79891 3381 ft 255 kts 135°
2026-05-07 20:47 37.90622 20.81526 3018 ft 247 kts 135°
2026-05-07 20:47 37.89494 20.83100 2731 ft 236 kts 135°
2026-05-07 20:47 37.88402 20.84589 2444 ft 226 kts 140°
2026-05-07 20:47 37.87081 20.85465 2113 ft 214 kts 169°
2026-05-07 20:48 37.85660 20.85636 1958 ft 197 kts 175°
2026-05-07 20:48 37.84323 20.85717 1626 ft 184 kts 179°
2026-05-07 20:48 37.83124 20.85658 1271 ft 162 kts 177°
2026-05-07 20:48 37.82039 20.85742 912 ft 149 kts 169°
2026-05-07 20:49 37.81085 20.86031 801 ft 151 kts 161°
2026-05-07 20:49 37.80141 20.86508 767 ft 135 kts 160°
2026-05-07 20:49 37.79208 20.86917 720 ft 156 kts 163°
2026-05-07 20:49 37.78210 20.87277 481 ft 146 kts 163°
2026-05-07 20:50 37.77282 20.87615 279 ft 136 kts 166°
2026-05-07 20:50 37.76342 20.87956 152 ft 147 kts 163°
2026-05-07 20:50 37.75421 20.88307 27 ft 126 kts 165°
2026-05-07 20:50 37.74737 20.88558 25 ft 70 kts 163°
2026-05-07 20:51 37.74437 20.88670 27 ft 24 kts 165°
2026-05-07 20:51 37.74369 20.88724 22 ft 9 kts 170°
2026-05-07 20:51 37.74348 20.88710 22 ft 0 kts 257°
2026-05-07 20:52 37.74361 20.88687 24 ft 13 kts 317°
2026-05-07 20:52 37.74531 20.88633 25 ft 31 kts 345°
2026-05-07 20:52 37.74746 20.88555 24 ft 31 kts 343°
2026-05-07 20:52 37.74927 20.88487 21 ft 26 kts 342°
2026-05-07 20:53 37.75067 20.88495 23 ft 13 kts 34°
2026-05-07 20:53 37.75154 20.88523 26 ft 14 kts 347°
2026-05-07 20:53 37.75254 20.88489 23 ft 12 kts 344°
2026-05-07 20:53 37.75320 20.88498 23 ft 6 kts 76°
2026-05-07 20:54 37.75326 20.88535 23 ft 4 kts 74°
2026-05-07 20:54 37.75330 20.88550 25 ft 0 kts 74°